Theta_e
322 321 331 338 345 349 353 351 349 343 338 334 333 335 336 336 342 345 330 329 328 325 325 325 322 324 323 323 322 322 319 317 316 316 315 315 315 315 315 315 315 317 316 315 315 314 313 311 309
327 330 334 338 347 353 347 344 341 340 338 341 341 337 338 335 329 331 330 328 326 325 325 325 324 324 323 322 321 320 318 316 316 315 316 315 315 314 314 314 314 314 313 313 313 312 311 309 307
330 334 336 342 348 351 347 342 341 339 340 343 342 338 338 335 329 330 329 327 326 325 325 324 323 322 320 318 318 317 316 315 315 315 315 314 314 313 313 313 312 312 311 311 310 310 308 307 306
333 336 337 340 344 341 342 342 340 341 341 341 340 338 332 330 330 328 325 325 325 324 323 322 321 320 318 316 316 316 314 314 314 313 312 312 313 312 313 311 310 309 308 308 308 307 306 305 304
331 336 340 342 344 343 339 337 339 344 345 344 342 337 332 327 326 324 325 325 323 322 321 321 319 318 317 316 315 313 312 313 312 310 310 311 310 309 308 308 307 306 305 306 305 305 304 303 302
335 336 339 338 337 342 339 338 341 343 343 341 338 333 330 325 325 325 325 323 322 321 320 319 318 317 315 313 312 312 312 311 309 307 306 307 306 305 305 305 304 304 303 303 303 302 302 301 300
334 335 335 335 336 338 341 339 350 349 343 344 338 335 329 325 325 325 323 323 322 321 319 317 316 314 313 313 312 310 306 305 304 306 305 305 305 303 303 303 302 301 301 300 301 300 299 300 300
331 331 332 332 335 342 338 340 345 347 341 339 333 333 331 325 325 324 324 324 323 321 318 316 315 315 313 310 306 306 307 307 307 308 308 307 307 306 304 303 302 300 299 299 299 299 298 299 300
329 330 329 329 334 337 337 341 339 336 336 333 334 333 326 324 324 324 325 323 320 318 318 317 317 315 314 310 309 310 310 309 310 309 309 308 307 306 305 304 303 301 300 299 300 299 299 299 300
327 327 327 327 330 333 338 340 340 341 337 332 329 326 325 324 324 325 323 320 318 317 317 316 314 311 309 310 311 311 311 310 310 310 308 307 307 306 305 304 303 302 302 300 299 298 298 298 297
325 325 324 324 328 329 337 337 339 343 340 332 330 327 325 325 326 324 321 319 318 316 315 312 309 309 311 311 311 310 310 310 310 308 307 306 305 305 304 303 302 301 300 299 298 297 297 297 296
321 322 323 323 330 338 338 335 335 336 334 329 328 327 326 326 326 324 321 318 315 313 310 310 309 309 310 309 309 311 310 309 309 307 305 305 303 303 302 301 300 300 299 298 297 297 297 296 296
322 322 323 324 335 336 334 334 333 331 329 327 327 326 327 325 324 320 316 315 310 308 307 307 308 308 308 310 310 310 308 308 307 306 304 303 301 301 300 299 298 298 298 297 296 296 296 296 296
323 322 322 324 336 336 337 334 332 329 327 327 327 327 325 324 318 317 314 309 306 306 306 308 306 308 309 309 307 306 305 305 304 303 301 300 298 298 297 297 297 297 297 296 296 296 295 295 295
322 322 322 324 338 338 333 333 332 328 327 329 317 316 313 314 312 311 308 305 305 307 306 305 306 308 307 306 305 304 304 303 301 299 298 297 296 296 295 296 296 296 295 295 295 295 294 294 294
323 322 322 324 329 338 336 339 330 328 327 321 316 313 310 308 307 306 305 307 307 304 305 306 307 306 305 305 305 304 303 301 299 298 297 296 296 295 295 295 295 295 294 294 294 294 294 294 294
323 323 323 330 332 337 337 337 329 327 323 319 316 311 309 307 306 306 306 305 302 304 305 307 306 305 304 303 301 301 300 299 298 297 296 295 295 294 294 294 294 293 294 294 294 294 294 294 293
322 324 323 332 333 337 338 335 330 326 321 318 315 311 309 307 305 303 301 301 303 305 307 306 305 303 302 301 299 298 298 297 297 296 295 294 294 294 294 294 293 293 293 293 293 293 294 294 294
323 323 323 331 331 332 337 334 330 326 320 317 314 311 309 306 303 301 302 305 305 307 306 305 303 302 300 299 298 297 297 296 296 295 294 294 294 294 293 294 293 293 293 293 293 293 293 293 293
322 322 323 332 329 326 335 335 329 323 321 317 314 311 308 304 304 304 304 305 307 307 306 304 302 301 299 297 296 296 296 295 295 295 294 294 294 293 293 293 293 292 292 292 293 292 293 293 293
321 322 323 323 331 329 335 334 330 326 321 316 313 310 307 305 305 305 304 306 308 307 305 304 302 300 298 296 296 295 295 295 295 295 294 293 292 292 292 291 291 290 291 291 291 292 292 292 292
321 322 322 323 330 330 333 337 330 324 320 316 312 311 309 307 305 304 306 309 308 307 305 304 302 299 297 296 295 295 295 295 294 294 293 293 291 291 291 290 289 290 290 291 291 291 290 291 291
321 323 323 322 324 329 335 336 337 327 325 318 313 312 310 306 306 306 308 309 307 306 305 303 301 298 296 295 295 295 295 294 293 293 293 292 292 291 291 290 289 289 289 289 289 289 289 289 289
321 323 323 324 325 329 330 336 341 334 330 321 314 313 308 307 306 307 309 308 307 306 304 303 300 297 296 295 295 294 294 294 293 293 292 292 292 291 291 290 289 289 289 289 289 288 288 288 288
321 322 325 329 331 334 332 331 340 332 331 322 315 312 309 306 307 310 310 308 307 305 304 302 299 296 295 295 294 294 294 293 293 293 292 292 292 292 291 290 289 289 288 288 288 288 287 288 289
323 324 329 332 333 332 330 335 332 330 325 319 314 312 308 309 309 311 310 308 307 305 303 301 298 296 295 294 294 294 294 294 293 293 292 292 292 291 291 289 289 288 288 288 287 287 287 288 287
325 326 327 330 329 326 333 332 330 326 322 318 314 313 313 311 311 311 309 308 307 304 302 300 297 296 295 294 294 294 294 294 293 292 292 292 292 291 290 289 288 288 288 287 287 287 287 286 286
326 326 328 327 325 329 335 336 336 329 323 319 319 317 314 313 312 310 309 307 305 304 301 298 296 296 294 294 294 294 294 293 293 292 292 291 291 290 289 288 288 288 288 287 287 286 284 285 285
323 325 326 325 329 333 331 337 331 328 324 322 319 317 315 315 312 310 308 306 305 303 299 297 296 295 294 294 294 294 293 293 292 292 291 291 290 289 289 288 289 289 288 287 287 284 284 284 284
324 325 324 326 326 330 332 335 330 328 324 322 320 318 316 314 312 310 308 306 304 301 297 296 295 294 293 293 293 293 292 292 292 291 291 290 289 289 289 289 289 288 288 287 285 284 283 283 283
Wind_Speed
8 8 8 12 5 6 12 5 28 12 17 18 16 17 21 18 9 10 8 22 21 20 17 14 13 14 14 13 13 13 13 11 11 11 11 12 12 12 13 13 13 13 14 14 14 14 16 17 17
8 10 15 6 9 7 5 4 6 17 16 17 18 19 14 10 10 11 10 19 19 19 17 15 16 17 16 14 13 12 10 10 10 10 11 11 11 11 12 12 12 12 13 13 14 14 15 16 17
14 13 8 7 5 4 12 2 11 14 11 13 9 18 11 6 10 4 19 21 20 19 17 18 17 16 14 10 9 10 10 10 10 10 10 10 10 10 9 10 11 12 12 13 13 13 14 15 15
8 7 7 9 5 4 17 15 13 11 10 21 22 15 9 15 8 13 21 19 20 19 18 16 15 14 12 11 10 9 8 8 9 9 10 11 9 10 8 9 10 12 13 14 13 13 14 15 16
14 7 11 8 5 14 22 5 9 17 16 15 12 10 7 15 26 23 20 20 23 19 17 15 13 14 13 10 10 9 8 9 9 10 10 8 8 9 9 10 12 14 14 14 14 14 15 16 17
7 12 15 5 12 26 9 20 22 11 17 16 17 12 5 17 21 20 21 20 19 19 14 13 14 14 13 11 9 8 8 7 7 8 9 7 8 10 10 11 13 15 15 14 14 15 17 17 17
13 13 17 18 14 4 6 4 26 19 20 8 15 8 6 15 18 21 21 19 17 16 15 13 13 13 12 11 10 6 6 6 7 10 14 10 10 11 9 8 11 17 14 15 14 17 18 17 15
13 13 22 21 10 3 1 14 16 12 15 10 19 12 8 16 20 19 17 17 16 16 15 11 12 10 10 7 6 6 7 9 10 11 14 14 11 9 10 10 15 17 16 14 13 14 20 18 17
12 12 15 19 11 14 11 12 18 18 20 24 15 12 30 26 20 19 19 18 17 14 13 13 14 12 7 6 6 5 7 6 8 9 13 14 12 13 13 16 15 16 14 16 13 16 19 20 19
11 12 20 15 11 12 21 19 10 9 15 19 24 26 29 25 21 19 19 18 17 18 17 14 11 9 7 7 7 6 7 5 6 4 7 11 14 17 15 16 14 15 16 15 15 18 18 14 19
12 14 17 14 13 14 18 25 23 16 17 15 21 21 22 22 20 17 17 17 16 16 17 13 10 7 5 6 8 9 10 9 9 11 9 11 14 19 16 18 17 20 17 15 18 19 19 18 19
13 18 13 15 16 22 18 14 27 26 20 19 20 20 20 16 16 15 16 20 18 17 18 13 8 9 7 8 7 10 10 11 12 13 13 13 17 19 18 19 20 20 19 17 19 20 21 19 21
14 10 14 1 19 22 24 24 19 19 17 17 18 15 11 10 10 16 26 23 21 19 15 12 9 8 9 8 11 10 11 13 11 12 12 13 15 18 19 20 20 19 18 17 20 22 20 21 20
14 9 11 3 18 15 22 13 9 10 12 14 13 12 10 12 22 23 25 21 19 14 11 9 10 9 13 11 11 11 13 13 13 12 13 11 15 17 18 20 21 19 18 20 22 21 20 20 21
14 14 13 4 20 16 23 16 11 11 10 15 19 16 18 22 27 24 20 17 14 12 9 7 8 9 9 11 11 11 10 12 13 14 14 15 16 16 19 21 21 18 22 22 20 21 20 22 23
12 12 12 15 14 18 12 9 12 11 13 15 14 13 14 16 18 16 17 16 12 11 8 10 10 10 11 10 9 8 7 8 10 12 11 16 17 17 19 20 21 20 21 21 20 18 21 22 22
12 12 18 11 11 15 7 12 14 12 13 12 11 11 10 10 13 12 13 12 10 7 6 10 10 12 13 13 14 15 14 12 11 12 11 16 16 18 19 20 20 22 21 19 20 21 21 21 23
16 18 9 14 9 17 18 17 14 13 12 11 10 9 9 9 8 7 8 8 7 5 8 10 12 15 17 13 14 14 14 13 11 12 13 14 15 18 19 20 21 22 21 22 22 24 22 22 24
20 14 10 16 11 7 18 17 13 13 11 10 10 9 9 9 8 7 5 5 8 7 9 11 13 15 17 18 15 16 16 15 12 14 17 13 18 17 20 18 22 22 23 25 25 23 23 23 24
14 13 11 15 9 4 16 15 12 11 10 10 11 10 11 10 8 9 6 5 6 9 9 12 13 14 15 16 16 16 17 16 15 16 16 20 18 19 18 20 20 21 24 25 23 25 24 21 22
13 14 12 14 11 4 17 9 12 7 7 10 10 11 11 11 9 8 7 11 10 10 10 11 12 13 14 16 17 17 17 17 17 17 19 22 20 19 20 20 20 24 23 24 25 23 23 22 24
15 13 14 7 8 9 12 2 8 8 7 8 10 11 11 10 8 9 12 8 8 9 8 10 11 13 14 16 16 17 17 16 18 18 21 20 21 20 20 20 25 23 23 23 23 23 25 24 23
13 4 8 11 12 11 19 7 9 18 12 13 12 13 13 10 8 8 13 10 10 11 10 9 11 12 13 14 14 15 15 17 18 18 21 21 21 22 21 24 24 23 22 23 25 24 25 25 25
15 8 9 11 13 12 2 8 10 12 19 18 16 14 14 10 8 13 10 10 9 10 8 8 10 11 12 13 14 14 14 17 19 20 20 22 21 21 21 24 23 23 23 24 24 24 24 26 26
14 9 8 10 8 5 8 3 4 11 15 23 22 18 14 10 9 9 11 10 8 8 11 13 12 12 12 13 14 14 15 16 18 20 20 22 21 22 24 23 24 23 24 24 24 24 26 26 19
15 15 9 6 2 9 16 6 6 18 20 21 19 17 15 14 10 7 12 9 8 6 13 12 13 12 13 13 14 14 16 16 17 19 20 20 22 23 23 26 23 24 24 23 23 25 25 22 22
15 15 16 12 12 9 9 14 15 18 19 19 18 18 15 13 12 12 11 6 7 10 10 9 12 12 13 14 14 15 17 18 18 20 20 22 22 24 25 24 24 25 23 23 24 24 23 27 25
16 11 11 6 9 9 7 8 11 16 17 18 18 15 14 13 12 11 9 8 8 6 10 11 11 13 13 13 14 15 18 19 19 20 22 22 24 24 25 24 25 25 24 24 24 20 27 28 28
10 11 7 10 6 6 11 6 11 17 17 18 16 15 14 12 13 8 9 9 7 9 10 11 11 13 13 14 15 16 19 20 21 21 23 24 24 25 24 24 25 25 26 28 18 25 30 31 29
14 15 13 6 5 5 6 4 12 20 19 17 18 15 14 13 13 9 11 12 9 9 10 12 12 13 14 15 16 18 20 21 21 22 23 24 25 25 25 25 25 25 27 26 20 28 34 31 30
Wind_Direction
241 214 221 250 256 201 217 193 224 86 79 73 56 82 94 42 26 102 113 113 115 116 115 118 112 108 102 96 90 90 82 77 69 62 55 47 43 35 28 20 22 22 15 8 7 360 356 357 359
212 219 231 282 257 2 4 349 322 92 108 104 65 93 58 69 57 108 102 117 115 114 122 120 117 105 98 93 90 90 85 79 65 60 51 48 39 29 25 25 24 14 2 2 358 355 354 353 352
229 265 272 224 110 157 283 126 104 109 144 109 105 55 56 77 87 79 118 117 112 114 121 115 110 105 99 103 104 91 87 78 71 63 54 45 37 30 34 27 12 7 360 355 352 351 349 347 346
255 230 243 255 53 318 247 186 119 122 124 87 106 80 83 25 98 113 113 112 115 117 117 114 111 105 100 109 107 102 92 78 71 56 47 43 37 32 29 20 13 5 358 355 350 346 344 340 339
251 266 263 68 17 288 275 34 120 73 66 4 91 74 76 74 107 113 114 116 118 118 113 112 116 108 108 104 98 92 77 69 59 48 36 41 40 33 26 21 12 3 358 352 347 341 337 335 331
268 266 280 355 261 218 360 335 24 86 95 124 97 100 72 117 114 117 120 119 123 121 123 115 109 107 103 93 86 85 85 69 53 36 26 26 31 19 25 14 12 1 353 346 342 339 333 329 326
258 285 286 275 247 22 97 291 54 8 89 64 133 95 117 124 123 125 125 133 131 131 123 115 111 109 106 109 102 95 63 43 27 22 21 12 10 8 2 14 358 353 347 342 340 344 342 329 322
255 285 292 287 73 18 289 79 107 170 32 59 151 138 153 144 139 137 142 143 150 133 118 130 126 123 103 84 75 57 34 33 28 14 15 358 342 345 341 316 324 335 347 340 331 329 341 328 317
269 278 278 292 42 17 178 136 90 81 84 59 47 99 127 139 141 148 159 152 136 121 120 116 112 114 84 58 16 355 340 350 7 360 2 349 350 328 327 318 319 330 329 341 317 327 317 316 317
235 260 267 321 24 120 68 53 121 112 83 73 81 100 123 137 150 153 158 135 141 135 124 97 82 63 40 17 342 304 311 2 313 322 354 355 342 335 334 339 322 335 325 326 334 329 326 337 335
238 259 275 322 33 7 96 60 31 97 68 103 117 125 137 152 152 156 147 140 133 113 97 78 66 59 25 354 342 3 346 354 16 13 6 360 348 341 342 334 334 328 325 336 331 331 328 332 320
255 270 281 293 53 52 56 77 61 64 85 111 120 131 144 148 165 165 145 116 97 86 78 77 64 56 15 3 354 356 352 357 358 4 354 348 347 335 338 335 333 322 330 335 337 327 323 331 316
277 276 282 17 77 82 76 67 78 73 92 115 125 127 126 124 144 87 88 90 78 73 71 66 38 20 32 8 359 356 357 358 350 343 351 1 355 343 344 335 324 332 335 346 333 320 328 321 320
292 307 261 128 113 123 96 63 97 86 111 119 114 100 73 81 82 81 81 75 76 80 70 52 47 38 3 8 5 2 358 352 352 11 17 9 358 348 342 332 331 333 348 341 318 322 328 328 328
270 276 266 204 149 125 121 58 89 121 139 101 76 72 61 60 69 75 79 81 83 77 57 49 28 44 22 14 4 357 360 352 360 1 8 11 359 350 344 334 330 338 343 326 325 332 332 336 328
268 249 262 213 201 159 191 112 132 144 109 97 94 82 73 61 71 80 90 94 89 80 81 50 41 25 7 11 345 335 353 357 359 355 357 359 348 350 343 333 333 341 335 324 329 332 341 325 325
237 242 224 148 187 140 143 127 148 142 120 107 96 91 88 85 76 83 101 101 101 80 54 59 38 18 356 11 2 3 6 360 7 360 1 350 344 347 342 334 333 338 328 327 332 337 321 319 314
242 218 236 152 139 101 91 117 146 135 129 120 110 104 103 103 102 113 111 109 103 111 78 59 36 20 5 18 6 2 357 353 358 353 2 348 346 342 339 333 338 334 330 333 328 318 315 316 313
273 301 316 113 123 175 113 133 149 138 130 131 128 127 121 121 136 142 137 126 141 93 66 42 38 27 15 6 11 1 350 355 1 358 353 351 347 340 338 337 334 334 334 327 319 318 322 316 311
254 269 259 122 147 172 130 130 144 146 159 153 146 139 138 137 148 145 142 203 152 85 57 43 35 30 21 5 14 1 350 356 9 359 354 355 343 345 340 336 334 334 334 321 327 327 320 317 320
244 249 248 262 125 207 135 136 153 156 137 140 144 144 147 148 152 132 182 207 105 77 49 42 32 28 25 12 12 2 1 359 1 353 355 346 349 344 344 343 349 341 329 329 324 328 332 326 320
243 226 250 251 179 244 160 210 158 146 163 167 158 158 157 149 142 176 211 141 102 88 61 35 38 30 21 16 11 3 5 354 354 356 349 344 347 350 350 355 349 336 335 328 334 332 328 325 317
247 289 235 239 249 234 202 221 154 175 187 186 173 174 147 151 168 195 217 116 89 86 65 37 31 31 22 12 11 7 1 349 351 354 344 350 342 349 351 355 345 339 335 335 333 330 329 323 318
235 201 251 257 259 240 258 232 178 190 202 174 171 152 150 147 182 217 133 110 84 73 45 37 30 40 20 13 8 7 360 348 349 354 349 347 345 345 345 346 344 338 336 333 330 329 324 318 313
234 225 230 229 234 353 289 249 138 194 165 164 164 154 153 162 187 177 138 105 81 65 47 19 28 36 22 14 7 4 358 353 348 354 346 341 344 344 340 347 340 337 334 331 332 331 323 319 334
221 219 231 231 303 250 226 93 70 79 106 134 148 148 151 170 178 171 112 109 99 78 54 27 12 27 22 13 7 2 356 352 349 346 341 343 342 343 340 342 337 337 334 336 335 328 322 328 322
205 230 246 253 249 264 110 97 103 109 119 131 141 160 152 159 192 107 108 99 76 83 66 39 11 24 18 11 3 1 355 352 349 346 347 345 346 341 342 340 340 337 336 335 333 329 340 333 333
239 214 241 231 275 308 110 132 134 143 139 146 153 145 153 174 138 113 118 91 81 63 67 41 24 21 15 6 2 357 357 354 352 348 350 350 346 347 342 343 340 335 337 337 333 347 344 328 325
214 249 231 249 161 186 253 84 138 146 147 151 147 148 162 159 119 119 117 101 86 59 46 48 26 17 12 2 1 3 1 355 353 353 354 351 350 348 345 344 338 340 341 337 338 349 339 323 320
215 212 238 243 279 14 319 85 113 136 148 138 141 161 145 128 117 135 113 90 53 57 34 44 32 20 8 4 5 14 2 357 354 358 356 352 352 348 347 343 343 343 340 339 354 346 332 323 318